Location: Unspecified
(54.1780°N, 0.0000°E)
Time: 03:45:11
(UTC+00:00)

Transit 2A - All Passes

Search period start: 17 June 2019 00:00
Search period end: 27 June 2019 00:00
Orbit: 593 x 966 km, 66.7° (Epoch: 16 June)

Date Brightness Start Highest point End Pass type
(mag) Time Alt. Az. Time Alt. Az. Time Alt. Az.
17 Jun - 01:35:16 10° SSW 01:41:25 52° ESE 01:47:27 10° NE visible
17 Jun - 03:18:34 10° WSW 03:24:49 53° NW 03:30:51 10° NE daylight
17 Jun - 05:04:01 10° WNW 05:09:21 28° NNW 05:14:27 10° NE daylight
17 Jun - 06:49:17 10° NW 06:54:25 26° N 06:59:13 10° ENE daylight
17 Jun - 08:33:10 10° NW 08:39:01 50° NE 08:44:18 10° ESE daylight
17 Jun - 10:16:45 10° NW 10:22:20 48° WSW 10:27:22 10° SSE daylight
18 Jun - 01:01:34 10° S 01:07:26 40° ESE 01:13:12 10° NE visible
18 Jun - 02:44:13 10° SW 02:50:34 64° NW 02:56:43 10° NE daylight
18 Jun - 04:29:25 10° W 04:34:55 30° NNW 04:40:10 10° NE daylight
18 Jun - 06:14:54 10° NW 06:19:57 25° N 06:24:41 10° ENE daylight
18 Jun - 07:59:01 10° NW 08:04:43 42° NNE 08:09:54 10° ESE daylight
18 Jun - 09:42:31 10° NW 09:48:19 64° SW 09:53:30 10° SSE daylight
18 Jun - 11:27:39 10° WNW 11:30:20 14° WSW 11:32:54 10° SW daylight
19 Jun - 00:28:01 10° S 00:33:29 31° ESE 00:38:53 10° NE visible
19 Jun - 02:09:57 10° SW 02:16:22 78° NW 02:22:35 10° NE visible
19 Jun - 03:54:49 10° W 04:00:30 33° NNW 04:05:57 10° NE daylight
19 Jun - 05:40:27 10° NW 05:45:29 25° N 05:50:13 10° NE daylight
19 Jun - 07:24:49 10° NW 07:30:22 36° NNE 07:35:27 10° E daylight
19 Jun - 09:08:20 10° NW 09:14:15 82° SW 09:19:31 10° SE daylight
19 Jun - 10:52:43 10° WNW 10:56:34 19° WSW 11:00:09 10° SSW daylight
19 Jun - 23:54:41 10° SSE 23:59:36 24° ESE 00:04:27 10° ENE visible
20 Jun - 01:35:49 10° SW 01:42:13 86° SE 01:48:27 10° NE visible
20 Jun - 03:20:16 10° W 03:26:09 38° NNW 03:31:46 10° NE daylight
20 Jun - 05:05:57 10° WNW 05:11:00 25° N 05:15:47 10° NE daylight
20 Jun - 06:50:36 10° NW 06:55:59 32° NNE 07:00:56 10° E daylight
20 Jun - 08:34:11 10° NW 08:40:06 79° NE 08:45:25 10° SE daylight
20 Jun - 10:18:10 10° WNW 10:22:44 25° WSW 10:26:57 10° SSW daylight
20 Jun - 23:21:39 10° SE 23:25:45 18° ESE 23:29:49 10° ENE visible
21 Jun - 01:01:47 10° SSW 01:08:07 69° SE 01:14:18 10° NE visible
21 Jun - 02:45:45 10° WSW 02:51:48 43° NNW 02:57:36 10° NE daylight
21 Jun - 04:31:24 10° WNW 04:36:32 26° N 04:41:24 10° NE daylight
21 Jun - 06:16:21 10° NW 06:21:34 29° NNE 06:26:25 10° ENE daylight
21 Jun - 08:00:01 10° NW 08:05:55 63° NE 08:11:13 10° SE daylight
21 Jun - 09:43:46 10° NW 09:48:52 34° WSW 09:53:29 10° S daylight
21 Jun - 22:49:09 10° SE 22:51:59 13° ESE 22:54:47 10° ENE visible
22 Jun - 00:27:53 10° SSW 00:34:04 54° ESE 00:40:06 10° NE visible
22 Jun - 02:11:18 10° WSW 02:17:30 51° NW 02:23:28 10° NE visible
22 Jun - 03:56:49 10° WNW 04:02:04 27° NNW 04:07:04 10° NE daylight
22 Jun - 05:42:02 10° NW 05:47:07 27° NNE 05:51:53 10° ENE daylight
22 Jun - 07:25:53 10° NW 07:31:41 51° NE 07:36:54 10° ESE daylight
22 Jun - 09:09:27 10° NW 09:14:55 45° WSW 09:19:50 10° S daylight
22 Jun - 23:54:07 10° S 00:00:04 42° ESE 00:05:52 10° NE visible
23 Jun - 01:36:56 10° WSW 01:43:15 62° NW 01:49:20 10° NE visible
23 Jun - 03:22:13 10° WNW 03:27:38 29° NNW 03:32:47 10° NE daylight
23 Jun - 05:07:39 10° NW 05:12:40 25° N 05:17:21 10° ENE daylight
23 Jun - 06:51:43 10° NW 06:57:24 43° NNE 07:02:31 10° ESE daylight
23 Jun - 08:35:13 10° NW 08:40:55 60° WSW 08:46:01 10° SSE daylight
23 Jun - 10:20:40 10° WNW 10:22:51 12° W 10:24:58 10° SW daylight
23 Jun - 23:20:32 10° S 23:26:06 33° ESE 23:31:34 10° NE visible
24 Jun - 01:02:38 10° SW 01:09:03 75° NW 01:15:13 10° NE visible
24 Jun - 02:47:37 10° W 02:53:14 32° NNW 02:58:34 10° NE daylight
24 Jun - 04:33:13 10° NW 04:38:12 25° N 04:42:52 10° ENE daylight
24 Jun - 06:17:32 10° NW 06:23:03 37° NNE 06:28:04 10° E daylight
24 Jun - 08:01:02 10° NW 08:06:52 78° SW 08:12:03 10° SSE daylight
24 Jun - 09:45:34 10° WNW 09:49:06 17° WSW 09:52:26 10° SW daylight
24 Jun - 22:47:10 10° SSE 22:52:13 25° ESE 22:57:10 10° ENE visible
25 Jun - 00:28:28 10° SW 00:34:54 89° SE 00:41:04 10° NE visible
25 Jun - 02:13:02 10° W 02:18:51 36° NNW 02:24:22 10° NE visible
25 Jun - 03:58:44 10° WNW 04:03:43 25° N 04:08:25 10° NE daylight
25 Jun - 05:43:19 10° NW 05:48:41 32° NNE 05:53:35 10° E daylight
25 Jun - 07:26:52 10° NW 07:32:44 83° NE 07:37:58 10° SE daylight
25 Jun - 09:10:56 10° WNW 09:15:18 24° WSW 09:19:19 10° SSW daylight
25 Jun - 22:14:03 10° SSE 22:18:21 19° ESE 22:22:35 10° ENE visible
25 Jun - 23:54:25 10° SSW 00:00:47 72° SE 00:06:55 10° NE visible
26 Jun - 01:38:30 10° WSW 01:44:31 42° NNW 01:50:13 10° NE visible
26 Jun - 03:24:11 10° WNW 03:29:15 25° N 03:34:01 10° NE daylight
26 Jun - 05:09:04 10° NW 05:14:16 29° NNE 05:19:04 10° ENE daylight
26 Jun - 06:52:43 10° NW 06:58:34 66° NE 07:03:47 10° SE daylight
26 Jun - 08:36:29 10° NW 08:41:26 31° WSW 08:45:54 10° S daylight
26 Jun - 21:41:24 10° SE 21:44:33 14° ESE 21:47:39 10° ENE visible
26 Jun - 23:20:29 10° SSW 23:26:43 57° ESE 23:32:44 10° NE visible
